• In United Kingdom
  • List of Countries
  • For 7 days
  • Water Temperature
  • Satellite Maps
  • Weather Map
  • Weather Widgets
  • user-avatar
    Login

    Hourly Weather Paygishevo

    Today, 22 July, Sunday

    Time Temperature Precipitation Wind Pressure Humidity
    00:00 +17°C° 0 mm 4 mps 749 mmHg 83%
    01:00 +15°C° 0 mm 4 mps 749 mmHg 84%
    02:00 +15°C° 0 mm 4 mps 750 mmHg 84%
    03:00 +14°C° 0 mm 3 mps 750 mmHg 89%
    04:00 +15°C° 0 mm 4 mps 750 mmHg 86%
    05:00 +15°C° 0 mm 4 mps 750 mmHg 83%
    06:00 +16°C° 0 mm 5 mps 750 mmHg 80%
    07:00 +17°C° 0 mm 5 mps 750 mmHg 74%
    08:00 +20°C° 0 mm 6 mps 750 mmHg 69%
    09:00 +21°C° 0 mm 6 mps 750 mmHg 63%
    10:00 +22°C° 0 mm 6 mps 751 mmHg 61%
    11:00 +22°C° 0 mm 6 mps 751 mmHg 59%
    12:00 +23°C° 0 mm 6 mps 751 mmHg 56%
    13:00 +23°C° 0 mm 6 mps 751 mmHg 57%
    14:00 +23°C° 0 mm 6 mps 751 mmHg 58%
    15:00 +25°C° 0 mm 5 mps 750 mmHg 58%
    16:00 +23°C° 0 mm 4 mps 750 mmHg 61%
    17:00 +23°C° 0 mm 4 mps 750 mmHg 64%
    18:00 +22°C° 0 mm 4 mps 750 mmHg 68%
    19:00 +20°C° 0 mm 3 mps 751 mmHg 72%
    20:00 +19°C° 0 mm 3 mps 751 mmHg 76%
    21:00 +17°C° 0 mm 3 mps 751 mmHg 81%
    22:00 +16°C° 0 mm 3 mps 751 mmHg 82%
    23:00 +14°C° 0 mm 3 mps 751 mmHg 84%

    Tomorrow, 23 July, Monday

    Time Temperature Precipitation Wind Pressure Humidity
    00:00 +14°C° 0 mm 3 mps 751 mmHg 85%
    01:00 +13°C° 0 mm 3 mps 751 mmHg 86%
    02:00 +13°C° 0 mm 3 mps 751 mmHg 87%
    03:00 +12°C° 0 mm 3 mps 752 mmHg 88%
    04:00 +13°C° 0 mm 3 mps 752 mmHg 85%
    05:00 +14°C° 0 mm 4 mps 752 mmHg 82%
    06:00 +14°C° 0 mm 4 mps 752 mmHg 79%
    07:00 +17°C° 0 mm 4 mps 752 mmHg 75%
    08:00 +19°C° 0 mm 4 mps 752 mmHg 71%
    09:00 +20°C° 0 mm 4 mps 752 mmHg 67%
    10:00 +22°C° 0 mm 4 mps 752 mmHg 63%
    11:00 +23°C° 0 mm 5 mps 752 mmHg 58%
    12:00 +25°C° 0 mm 5 mps 752 mmHg 54%
    13:00 +25°C° 0 mm 5 mps 752 mmHg 54%
    14:00 +25°C° 0 mm 5 mps 752 mmHg 54%
    15:00 +25°C° 0 mm 5 mps 752 mmHg 54%
    16:00 +23°C° 0 mm 4 mps 752 mmHg 58%
    17:00 +22°C° 0 mm 4 mps 752 mmHg 63%
    18:00 +22°C° 0 mm 3 mps 752 mmHg 67%
    19:00 +20°C° 0 mm 3 mps 752 mmHg 72%
    20:00 +19°C° 0 mm 3 mps 753 mmHg 77%
    21:00 +17°C° 0 mm 3 mps 753 mmHg 82%
    22:00 +17°C° 0 mm 3 mps 753 mmHg 84%
    23:00 +16°C° 0 mm 3 mps 753 mmHg 85%

    Day after tomorrow, 24 July, Tuesday

    Time Temperature Precipitation Wind Pressure Humidity
    00:00 +16°C° 0 mm 3 mps 753 mmHg 87%
    01:00 +14°C° 0 mm 3 mps 753 mmHg 88%
    02:00 +14°C° 0 mm 3 mps 753 mmHg 89%
    03:00 +14°C° 0 mm 3 mps 753 mmHg 90%
    04:00 +14°C° 0 mm 3 mps 754 mmHg 87%
    05:00 +16°C° 0 mm 3 mps 754 mmHg 84%
    06:00 +17°C° 0 mm 4 mps 754 mmHg 81%
    07:00 +18°C° 0 mm 4 mps 754 mmHg 75%
    08:00 +20°C° 0 mm 4 mps 754 mmHg 70%
    09:00 +21°C° 0 mm 4 mps 754 mmHg 65%
    10:00 +22°C° 0 mm 4 mps 754 mmHg 61%
    11:00 +23°C° 0 mm 4 mps 754 mmHg 58%
    12:00 +25°C° 0 mm 4 mps 755 mmHg 55%
    13:00 +25°C° 0 mm 4 mps 754 mmHg 54%
    14:00 +26°C° 0 mm 4 mps 754 mmHg 52%
    15:00 +27°C° 0 mm 3 mps 754 mmHg 51%
    16:00 +26°C° 0 mm 3 mps 754 mmHg 56%
    17:00 +26°C° 0 mm 3 mps 754 mmHg 61%
    18:00 +25°C° 0 mm 2 mps 754 mmHg 66%
    19:00 +24°C° 0 mm 2 mps 754 mmHg 71%
    20:00 +21°C° 0 mm 2 mps 754 mmHg 76%
    21:00 +20°C° 0 mm 2 mps 755 mmHg 80%
    22:00 +19°C° 0 mm 2 mps 755 mmHg 84%
    23:00 +18°C° 0 mm 2 mps 755 mmHg 87%

    25 July, Wednesday

    Time Temperature Precipitation Wind Pressure Humidity
    00:00 +18°C° 0 mm 2 mps 755 mmHg 90%
    01:00 +17°C° 0 mm 2 mps 755 mmHg 91%
    02:00 +17°C° 0 mm 2 mps 755 mmHg 92%
    03:00 +17°C° 0 mm 2 mps 756 mmHg 93%
    04:00 +17°C° 0 mm 2 mps 756 mmHg 90%
    05:00 +18°C° 0 mm 2 mps 756 mmHg 87%
    06:00 +19°C° 0 mm 2 mps 756 mmHg 84%
    07:00 +21°C° 0 mm 3 mps 756 mmHg 77%
    08:00 +24°C° 0 mm 3 mps 756 mmHg 71%
    09:00 +25°C° 0 mm 3 mps 756 mmHg 65%
    10:00 +26°C° 0 mm 3 mps 756 mmHg 61%
    11:00 +27°C° 0 mm 3 mps 756 mmHg 57%
    12:00 +28°C° 0 mm 3 mps 756 mmHg 52%
    13:00 +29°C° 0 mm 3 mps 756 mmHg 52%
    14:00 +29°C° 0 mm 3 mps 756 mmHg 51%
    15:00 +29°C° 0 mm 3 mps 756 mmHg 50%
    16:00 +29°C° 0 mm 3 mps 756 mmHg 55%
    17:00 +28°C° 0 mm 3 mps 756 mmHg 60%
    18:00 +27°C° 0 mm 2 mps 756 mmHg 65%
    19:00 +26°C° 0 mm 2 mps 756 mmHg 71%
    20:00 +24°C° 0 mm 2 mps 756 mmHg 77%
    21:00 +21°C° 0 mm 2 mps 756 mmHg 82%
    22:00 +20°C° 0 mm 2 mps 757 mmHg 84%
    23:00 +20°C° 0 mm 2 mps 757 mmHg 85%

    26 July, Thursday

    Time Temperature Precipitation Wind Pressure Humidity
    00:00 +19°C° 0 mm 2 mps 757 mmHg 86%
    01:00 +19°C° 0 mm 2 mps 757 mmHg 86%
    02:00 +19°C° 0 mm 2 mps 757 mmHg 86%
    03:00 +18°C° 0 mm 2 mps 757 mmHg 85%
    04:00 +19°C° 0 mm 2 mps 757 mmHg 83%
    05:00 +20°C° 0 mm 2 mps 758 mmHg 80%
    06:00 +21°C° 0 mm 2 mps 758 mmHg 77%
    07:00 +23°C° 0 mm 2 mps 758 mmHg 72%
    08:00 +25°C° 0 mm 2 mps 758 mmHg 66%
    09:00 +27°C° 0 mm 2 mps 758 mmHg 61%
    10:00 +28°C° 0 mm 2 mps 758 mmHg 56%
    11:00 +29°C° 0 mm 2 mps 758 mmHg 52%
    12:00 +30°C° 0 mm 2 mps 758 mmHg 47%
    13:00 +30°C° 0 mm 2 mps 758 mmHg 48%
    14:00 +30°C° 0 mm 2 mps 758 mmHg 48%
    15:00 +30°C° 0 mm 2 mps 757 mmHg 48%
    16:00 +29°C° 0 mm 2 mps 757 mmHg 53%
    17:00 +28°C° 0 mm 1 mps 757 mmHg 59%
    18:00 +27°C° 0 mm 1 mps 757 mmHg 64%
    19:00 +26°C° 0 mm 1 mps 757 mmHg 67%
    20:00 +24°C° 0 mm 1 mps 757 mmHg 70%
    21:00 +23°C° 0 mm 1 mps 757 mmHg 73%
    22:00 +22°C° 0 mm 1 mps 757 mmHg 75%
    23:00 +22°C° 0 mm 1 mps 758 mmHg 76%

    27 July, Friday

    Time Temperature Precipitation Wind Pressure Humidity
    00:00 +21°C° 0 mm 1 mps 758 mmHg 78%
    01:00 +21°C° 0 mm 1 mps 758 mmHg 78%
    02:00 +21°C° 0 mm 1 mps 758 mmHg 78%
    03:00 +21°C° 0 mm 1 mps 758 mmHg 78%
    04:00 +21°C° 0 mm 1 mps 758 mmHg 77%
    05:00 +22°C° 0 mm 1 mps 758 mmHg 76%
    06:00 +23°C° 0 mm 1 mps 758 mmHg 74%
    07:00 +24°C° 0 mm 1 mps 758 mmHg 71%
    08:00 +25°C° 0 mm 1 mps 758 mmHg 68%
    09:00 +26°C° 0 mm 1 mps 758 mmHg 65%
    10:00 +28°C° 0 mm 1 mps 758 mmHg 58%
    11:00 +29°C° 0 mm 1 mps 758 mmHg 50%
    12:00 +31°C° 0 mm 1 mps 758 mmHg 43%
    13:00 +31°C° 0 mm 1 mps 758 mmHg 44%
    14:00 +30°C° 0 mm 1 mps 757 mmHg 46%
    15:00 +30°C° 0 mm 1 mps 757 mmHg 47%
    16:00 +29°C° 0 mm 1 mps 757 mmHg 52%
    17:00 +28°C° 0 mm 1 mps 757 mmHg 56%
    18:00 +27°C° 0 mm 1 mps 757 mmHg 61%
    19:00 +26°C° 0 mm 1 mps 757 mmHg 62%
    20:00 +25°C° 0 mm 1 mps 757 mmHg 63%
    21:00 +24°C° 0 mm 1 mps 757 mmHg 64%
    22:00 +23°C° 0 mm 1 mps 757 mmHg 66%
    23:00 +22°C° 0 mm 1 mps 757 mmHg 68%
    Show more